Regional Weather Roundup
Issued by NWS Jackson, KY

Home | Current Version | Previous Version | Graphics & Text | Print | Product List | Glossary On
Versions: 1 2 3 4 5 6 7 8 9 10 11 12 13 14 15 16 17 18 19 20 21 22 23 24 25 26 27 28 29 30 31 32 33 34 35 36 37 38 39 40 41 42 43 44 45 46 47 48 49 50
184
ASUS43 KJKL 201210
RWRJKL

EAST KENTUCKY HOURLY WEATHER ROUNDUP
NATIONAL WEATHER SERVICE JACKSON KY
700 AM EST SAT JAN 20 2018

NOTE: "FAIR" INDICATES FEW OR NO CLOUDS BELOW 12,000 FEET WITH
NO SIGNIFICANT WEATHER AND/OR OBSTRUCTIONS TO VISIBILITY.

* THESE REPORTS ARE NOT UNDER NWS QUALITY CONTROL AND MAY NOT
  REPORT WEATHER SUCH AS PRECIPITATION AND FOG.

KYZ079-080-083-085-087-088-110-112-115-119-120-201300
...EASTERN KENTUCKY...

CITY           SKY/WX    TMP DP  RH WIND       PRES   REMARKS
JACKSON        CLOUDY    43  32  65 SW5       30.15R
6HR MIN TEMP:  35; 6HR MAX TEMP:  43;

LONDON         CLOUDY    44  31  60 S7        30.17S
6HR MIN TEMP:  35; 6HR MAX TEMP:  44;

SOMERSET*      CLOUDY    37  28  70 S7        30.19R WCI  32
MONTICELLO*    CLOUDY    45  33  63 W13       30.20R
6HR MIN TEMP:  41; 6HR MAX TEMP:  45;

WILLIAMSBURG*  CLOUDY    43  32  65 SE6       30.19S
MIDDLESBORO*   CLOUDY    32  28  86 CALM      30.25R
6HR MIN TEMP:  22; 6HR MAX TEMP:  32;

HARLAN APT*    CLOUDY    32  23  69 CALM      30.22R
PIKE CO APT*   CLOUDY    43  33  68 S6        30.16S
BIG SANDY APT* CLOUDY    44  33  65 SW5       30.17R
6HR MIN TEMP:  38; 6HR MAX TEMP:  44;

MOREHEAD APT*    N/A     43  28  56 SW16G22   30.14R
ASHLAND*         N/A     26  22  84 CALM      30.14R
$$

KYZ035-036-041-042-044-050-067-078-099-201300
...CENTRAL KENTUCKY...

CITY           SKY/WX    TMP DP  RH WIND       PRES   REMARKS
MT STERLING*   CLOUDY    41  30  65 SW10      30.15R
FLEMING/MASON*   N/A     36  26  68 SW8       30.12S WCI  29
DANVILLE*      CLOUDY    41  28  60 SW8       30.15R
LEXINGTON      CLOUDY    41  27  57 SW12      30.12R
6HR MIN TEMP:  35; 6HR MAX TEMP:  41;

FRANKFORT      MOCLDY    40  24  53 S9        30.10R WCI  34
6HR MIN TEMP:  37; 6HR MAX TEMP:  41;

LOUISVILLE       N/A     41  22  46 S8        30.11R
6HR MIN TEMP:  40; 6HR MAX TEMP:  42;

LEBANON*       PTSUNNY   39  27  60 S13       30.14R WCI  32
GLASGOW*       CLOUDY    41  28  60 S6        30.17R
BOWLING GREEN  CLOUDY    40  29  64 S5        30.17R
6HR MIN TEMP:  39; 6HR MAX TEMP:  41;

$$

KYZ091>093-OHZ055-061-077-WVZ005-015-034-035-042-201300
...SOUTHERN OHIO/WEST VIRGINIA...

CITY           SKY/WX    TMP DP  RH WIND       PRES   REMARKS
COVINGTON        N/A     33  25  72 S10       30.06R WCI  25
COLUMBUS         N/A     32  23  69 S7        30.03R WCI  26
DAYTON         MOCLDY    31  23  72 SW14      30.01R WCI  21
WILMINGTON       N/A     32  24  72 SW14      30.04R WCI  22
HUNTINGTON       N/A     40  27  59 SW8       30.13R WCI  34
CHARLESTON     CLOUDY    42  31  64 SW9       30.13R
BECKLEY        CLOUDY    34  20  56 SW9       30.14S WCI  27
BLUEFIELD      CLOUDY    34  25  69 W15       30.15S WCI  24
LOGAN CO APT*  CLOUDY    37  23  56 CALM      30.15R
$$

VAZ002-007-008-TNZ017-027-036-066-071-201300
...SOUTHWEST VIRGINIA/EAST TENNESSEE...

CITY           SKY/WX    TMP DP  RH WIND       PRES   REMARKS
WISE*          CLOUDY    36  28  75 SW8       30.19R WCI  29
JONESVILLE*    CLOUDY    28  23  80 CALM      30.27S
ABINGDON*      CLOUDY    32  19  59 CALM      30.23S
BRISTOL        CLOUDY    27  22  81 CALM      30.25S
MORRISTOWN*    CLOUDY    34  21  60 CALM      30.24R
SEVIERVILLE*   CLOUDY    32  28  86 NW6       30.25R WCI  26
KNOXVILLE      CLOUDY    36  22  56 NE5       30.25R WCI  32
LAFOLLETTE*    CLOUDY    32  25  74 CALM      30.28R
OAK RIDGE      CLOUDY    35  25  66 CALM      30.27R
CROSSVILLE     CLOUDY    37  22  54 S3        30.21R
NASHVILLE      MOCLDY    44  27  51 S6        30.20R
$$

...KEY TO REMARKS...
VSB - VISIBILITY IN MILES
WCI - WIND CHILL INDEX
HX  - HEAT INDEX

$$




USA.gov is the U.S. government's official web portal to all federal, state and local government web resources and services.